Time,TemperatureF,DewpointF,PressureIn,WindDirection,WindDirectionDegrees,WindSpeedMPH,WindSpeedGustMPH,Humidity,HourlyPrecipIn,Conditions,Clouds,dailyrainin,SoftwareType,DateUTC
2013-03-07 00:13:00,46.6,19.0,29.84,NW,306,9.0,19.0,34,0.00,,,0.00,weatherlink.com 1.10,2013-03-07 07:13:00,
2013-03-07 00:28:00,46.3,18.0,29.86,South,186,5.0,16.0,33,0.00,,,0.00,weatherlink.com 1.10,2013-03-07 07:28:00,
2013-03-07 00:43:00,46.8,17.0,29.84,NE,52,7.0,10.0,31,0.00,,,0.00,weatherlink.com 1.10,2013-03-07 07:43:00,
2013-03-07 00:58:00,46.8,15.0,29.84,WNW,291,4.0,13.0,28,0.00,,,0.00,weatherlink.com 1.10,2013-03-07 07:58:00,
2013-03-07 01:13:00,45.2,13.0,29.83,ESE,109,14.0,14.0,27,0.00,,,0.00,weatherlink.com 1.10,2013-03-07 08:13:00,
2013-03-07 01:28:00,43.4,14.0,29.84,South,174,3.0,20.0,30,0.00,,,0.00,weatherlink.com 1.10,2013-03-07 08:28:00,
2013-03-07 01:43:00,44.3,7.0,29.84,WNW,296,11.0,22.0,22,0.00,,,0.00,weatherlink.com 1.10,2013-03-07 08:43:00,
2013-03-07 01:58:00,45.1,6.0,29.84,SSW,213,11.0,32.0,20,0.00,,,0.00,weatherlink.com 1.10,2013-03-07 08:58:00,
2013-03-07 02:13:00,44.0,7.0,29.84,West,260,9.0,18.0,22,0.00,,,0.00,weatherlink.com 1.10,2013-03-07 09:13:00,
2013-03-07 02:28:00,43.5,8.0,29.86,WNW,300,7.0,20.0,23,0.00,,,0.00,weatherlink.com 1.10,2013-03-07 09:28:00,
2013-03-07 02:43:00,42.8,10.0,29.86,WNW,286,11.0,18.0,26,0.00,,,0.00,weatherlink.com 1.10,2013-03-07 09:43:00,
2013-03-07 02:59:00,43.2,10.0,29.86,NW,304,20.0,31.0,26,0.00,,,0.00,weatherlink.com 1.10,2013-03-07 09:59:00,
2013-03-07 03:13:00,42.9,9.0,29.87,WNW,294,13.0,19.0,25,0.00,,,0.00,weatherlink.com 1.10,2013-03-07 10:13:00,
2013-03-07 03:28:00,42.6,11.0,29.88,NW,313,11.0,27.0,27,0.00,,,0.00,weatherlink.com 1.10,2013-03-07 10:28:00,
2013-03-07 03:44:00,42.7,12.0,29.90,West,281,9.0,25.0,28,0.00,,,0.00,weatherlink.com 1.10,2013-03-07 10:44:00,
2013-03-07 03:59:00,42.4,12.0,29.90,WSW,254,5.0,12.0,29,0.00,,,0.00,weatherlink.com 1.10,2013-03-07 10:59:00,
2013-03-07 04:14:00,41.6,13.0,29.91,WSW,242,8.0,23.0,31,0.00,,,0.00,weatherlink.com 1.10,2013-03-07 11:14:00,
2013-03-07 04:29:00,41.5,12.0,29.89,SW,233,22.0,23.0,30,0.00,,,0.00,weatherlink.com 1.10,2013-03-07 11:29:00,
2013-03-07 04:44:00,41.2,13.0,29.90,SW,236,14.0,28.0,32,0.00,,,0.00,weatherlink.com 1.10,2013-03-07 11:44:00,
2013-03-07 04:59:00,41.8,12.0,29.90,WSW,250,13.0,31.0,30,0.00,,,0.00,weatherlink.com 1.10,2013-03-07 11:59:00,
2013-03-07 05:14:00,41.4,12.0,29.91,WSW,253,18.0,31.0,30,0.00,,,0.00,weatherlink.com 1.10,2013-03-07 12:14:00,
2013-03-07 05:29:00,41.6,11.0,29.91,SW,228,16.0,27.0,29,0.00,,,0.00,weatherlink.com 1.10,2013-03-07 12:29:00,
2013-03-07 05:59:00,40.4,11.0,29.89,WSW,248,16.0,34.0,30,0.00,,,0.00,weatherlink.com 1.10,2013-03-07 12:59:00,
2013-03-07 06:14:00,40.8,11.0,29.91,WSW,251,11.0,24.0,29,0.00,,,0.00,weatherlink.com 1.10,2013-03-07 13:14:00,
2013-03-07 06:29:00,39.7,11.0,29.91,West,264,14.0,18.0,31,0.00,,,0.00,weatherlink.com 1.10,2013-03-07 13:29:00,
2013-03-07 06:44:00,39.6,11.0,29.91,WSW,252,18.0,24.0,31,0.00,,,0.00,weatherlink.com 1.10,2013-03-07 13:44:00,
2013-03-07 06:59:00,40.2,10.0,29.92,West,263,19.0,23.0,29,0.00,,,0.00,weatherlink.com 1.10,2013-03-07 13:59:00,
2013-03-07 07:14:00,40.4,11.0,29.92,WSW,252,14.0,23.0,30,0.00,,,0.00,weatherlink.com 1.10,2013-03-07 14:14:00,
2013-03-07 07:29:00,39.4,11.0,29.93,WSW,252,9.0,17.0,31,0.00,,,0.00,weatherlink.com 1.10,2013-03-07 14:29:00,
2013-03-07 07:44:00,40.8,11.0,29.92,West,263,20.0,23.0,29,0.00,,,0.00,weatherlink.com 1.10,2013-03-07 14:44:00,
2013-03-07 07:59:00,41.2,10.0,29.93,WNW,288,15.0,27.0,28,0.00,,,0.00,weatherlink.com 1.10,2013-03-07 14:59:00,
2013-03-07 08:14:00,41.5,10.0,29.93,West,265,19.0,29.0,28,0.00,,,0.00,weatherlink.com 1.10,2013-03-07 15:14:00,
2013-03-07 08:29:00,41.6,11.0,29.93,WSW,258,12.0,22.0,28,0.00,,,0.00,weatherlink.com 1.10,2013-03-07 15:29:00,
2013-03-07 08:44:00,42.2,9.0,29.93,West,263,16.0,25.0,26,0.00,,,0.00,weatherlink.com 1.10,2013-03-07 15:44:00,
2013-03-07 08:59:00,42.9,10.0,29.92,WSW,255,17.0,19.0,26,0.00,,,0.00,weatherlink.com 1.10,2013-03-07 15:59:00,
2013-03-07 09:14:00,43.6,10.0,29.92,West,261,10.0,24.0,25,0.00,,,0.00,weatherlink.com 1.10,2013-03-07 16:14:00,
2013-03-07 09:29:00,43.9,9.0,29.92,West,261,16.0,20.0,24,0.00,,,0.00,weatherlink.com 1.10,2013-03-07 16:29:00,
2013-03-07 09:44:00,45.0,7.0,29.92,West,276,8.0,15.0,21,0.00,,,0.00,weatherlink.com 1.10,2013-03-07 16:44:00,
2013-03-07 09:59:00,45.7,8.0,29.92,West,276,6.0,16.0,21,0.00,,,0.00,weatherlink.com 1.10,2013-03-07 16:59:00,
2013-03-07 10:14:00,47.3,7.0,29.93,NW,322,2.0,16.0,19,0.00,,,0.00,weatherlink.com 1.10,2013-03-07 17:14:00,
2013-03-07 10:29:00,46.8,6.0,29.93,West,280,6.0,19.0,19,0.00,,,0.00,weatherlink.com 1.10,2013-03-07 17:29:00,
2013-03-07 10:44:00,47.8,8.0,29.93,West,265,6.0,14.0,20,0.00,,,0.00,weatherlink.com 1.10,2013-03-07 17:44:00,
2013-03-07 10:59:00,47.7,11.0,29.93,NNE,28,7.0,10.0,23,0.00,,,0.00,weatherlink.com 1.10,2013-03-07 17:59:00,
2013-03-07 11:14:00,48.3,10.0,29.93,NNE,31,2.0,7.0,21,0.00,,,0.00,weatherlink.com 1.10,2013-03-07 18:14:00,
2013-03-07 11:29:00,48.6,5.0,29.93,NNE,15,6.0,7.0,17,0.00,,,0.00,weatherlink.com 1.10,2013-03-07 18:29:00,
2013-03-07 11:44:00,48.7,4.0,29.93,SW,220,0.0,13.0,16,0.00,,,0.00,weatherlink.com 1.10,2013-03-07 18:44:00,
2013-03-07 11:59:00,48.7,7.0,29.93,West,267,9.0,14.0,18,0.00,,,0.00,weatherlink.com 1.10,2013-03-07 18:59:00,
2013-03-07 12:14:00,49.0,8.0,29.93,SW,232,5.0,10.0,19,0.00,,,0.00,weatherlink.com 1.10,2013-03-07 19:14:00,
2013-03-07 12:29:00,49.7,8.0,29.93,SW,227,3.0,18.0,18,0.00,,,0.00,weatherlink.com 1.10,2013-03-07 19:29:00,
2013-03-07 12:44:00,49.6,7.0,29.92,WNW,286,7.0,11.0,18,0.00,,,0.00,weatherlink.com 1.10,2013-03-07 19:44:00,
2013-03-07 12:59:00,50.0,9.0,29.92,West,269,10.0,14.0,19,0.00,,,0.00,weatherlink.com 1.10,2013-03-07 19:59:00,
2013-03-07 13:14:00,49.7,9.0,29.91,West,278,11.0,16.0,19,0.00,,,0.00,weatherlink.com 1.10,2013-03-07 20:14:00,
2013-03-07 13:30:00,50.0,9.0,29.90,WNW,285,8.0,13.0,19,0.00,,,0.00,weatherlink.com 1.10,2013-03-07 20:30:00,
2013-03-07 13:44:00,49.6,6.0,29.90,NW,308,6.0,12.0,17,0.00,,,0.00,weatherlink.com 1.10,2013-03-07 20:44:00,
2013-03-07 14:00:00,50.1,2.0,29.89,WNW,294,8.0,10.0,14,0.00,,,0.00,weatherlink.com 1.10,2013-03-07 21:00:00,
2013-03-07 14:15:00,51.0,6.0,29.89,North,349,8.0,12.0,16,0.00,,,0.00,weatherlink.com 1.10,2013-03-07 21:15:00,
2013-03-07 14:30:00,51.5,2.0,29.89,NNW,333,0.0,9.0,13,0.00,,,0.00,weatherlink.com 1.10,2013-03-07 21:30:00,
2013-03-07 14:45:00,51.2,0.0,29.89,NW,318,4.0,11.0,12,0.00,,,0.00,weatherlink.com 1.10,2013-03-07 21:45:00,
2013-03-07 15:00:00,51.6,8.0,29.89,NE,49,5.0,12.0,17,0.00,,,0.00,weatherlink.com 1.10,2013-03-07 22:00:00,
2013-03-07 15:15:00,51.0,7.0,29.90,NE,35,9.0,13.0,17,0.00,,,0.00,weatherlink.com 1.10,2013-03-07 22:15:00,
2013-03-07 15:30:00,51.1,7.0,29.89,NNE,27,9.0,12.0,17,0.00,,,0.00,weatherlink.com 1.10,2013-03-07 22:30:00,
2013-03-07 15:45:00,50.8,7.0,29.89,NE,44,10.0,14.0,17,0.00,,,0.00,weatherlink.com 1.10,2013-03-07 22:45:00,
2013-03-07 16:00:00,50.6,8.0,29.89,ENE,58,11.0,11.0,18,0.00,,,0.00,weatherlink.com 1.10,2013-03-07 23:00:00,
2013-03-07 16:15:00,50.0,10.0,29.90,NE,36,9.0,15.0,20,0.00,,,0.00,weatherlink.com 1.10,2013-03-07 23:15:00,
2013-03-07 16:30:00,49.6,10.0,29.91,NNE,31,15.0,15.0,20,0.00,,,0.00,weatherlink.com 1.10,2013-03-07 23:30:00,
2013-03-07 16:45:00,49.0,10.0,29.91,NNE,27,9.0,15.0,21,0.00,,,0.00,weatherlink.com 1.10,2013-03-07 23:45:00,
2013-03-07 17:00:00,48.6,10.0,29.92,NE,34,8.0,12.0,21,0.00,,,0.00,weatherlink.com 1.10,2013-03-08 00:00:00,
2013-03-07 17:15:00,48.2,10.0,29.93,NNE,28,7.0,11.0,21,0.00,,,0.00,weatherlink.com 1.10,2013-03-08 00:15:00,
2013-03-07 17:30:00,47.6,10.0,29.93,NNE,19,10.0,14.0,22,0.00,,,0.00,weatherlink.com 1.10,2013-03-08 00:30:00,
2013-03-07 17:45:00,46.9,11.0,29.94,NNE,19,8.0,11.0,23,0.00,,,0.00,weatherlink.com 1.10,2013-03-08 00:45:00,
2013-03-07 18:00:00,46.1,11.0,29.94,NNE,19,4.0,8.0,24,0.00,,,0.00,weatherlink.com 1.10,2013-03-08 01:00:00,
2013-03-07 18:30:00,43.9,12.0,29.95,NNE,19,5.0,7.0,27,0.00,,,0.00,weatherlink.com 1.10,2013-03-08 01:30:00,
2013-03-07 18:45:00,44.2,12.0,29.96,NNE,19,5.0,8.0,27,0.00,,,0.00,weatherlink.com 1.10,2013-03-08 01:45:00,
2013-03-07 19:00:00,44.2,11.0,29.96,NNE,19,4.0,7.0,26,0.00,,,0.00,weatherlink.com 1.10,2013-03-08 02:00:00,
2013-03-07 19:15:00,43.8,11.0,29.97,NNE,19,5.0,7.0,26,0.00,,,0.00,weatherlink.com 1.10,2013-03-08 02:15:00,
2013-03-07 19:30:00,43.7,11.0,29.97,NNE,19,6.0,7.0,26,0.00,,,0.00,weatherlink.com 1.10,2013-03-08 02:30:00,
2013-03-07 19:45:00,43.2,11.0,29.96,NNE,19,5.0,8.0,27,0.00,,,0.00,weatherlink.com 1.10,2013-03-08 02:45:00,
2013-03-07 20:00:00,43.0,12.0,29.97,NNE,19,7.0,8.0,28,0.00,,,0.00,weatherlink.com 1.10,2013-03-08 03:00:00,
2013-03-07 20:15:00,43.0,12.0,29.97,NNE,19,6.0,7.0,28,0.00,,,0.00,weatherlink.com 1.10,2013-03-08 03:15:00,
2013-03-07 20:30:00,41.9,12.0,29.97,NNE,19,3.0,4.0,29,0.00,,,0.00,weatherlink.com 1.10,2013-03-08 03:30:00,
2013-03-07 20:45:00,41.3,13.0,29.97,NNE,19,2.0,4.0,31,0.00,,,0.00,weatherlink.com 1.10,2013-03-08 03:45:00,
2013-03-07 21:00:00,40.0,12.0,29.97,NNE,19,3.0,6.0,32,0.00,,,0.00,weatherlink.com 1.10,2013-03-08 04:00:00,
2013-03-07 21:15:00,39.5,12.0,29.97,NNE,19,3.0,3.0,32,0.00,,,0.00,weatherlink.com 1.10,2013-03-08 04:15:00,
2013-03-07 21:30:00,37.9,12.0,29.96,NNE,19,3.0,4.0,34,0.00,,,0.00,weatherlink.com 1.10,2013-03-08 04:30:00,
2013-03-07 21:45:00,38.0,11.0,29.96,NNE,19,3.0,4.0,33,0.00,,,0.00,weatherlink.com 1.10,2013-03-08 04:45:00,
2013-03-07 22:00:00,37.1,11.0,29.96,NNE,19,2.0,3.0,34,0.00,,,0.00,weatherlink.com 1.10,2013-03-08 05:00:00,
2013-03-07 22:15:00,37.3,12.0,29.96,NNE,19,0.0,5.0,35,0.00,,,0.00,weatherlink.com 1.10,2013-03-08 05:15:00,
2013-03-07 22:30:00,38.2,13.0,29.96,NNE,19,2.0,2.0,35,0.00,,,0.00,weatherlink.com 1.10,2013-03-08 05:30:00,
2013-03-07 22:45:00,38.2,14.0,29.96,NNE,19,3.0,4.0,38,0.00,,,0.00,weatherlink.com 1.10,2013-03-08 05:45:00,
2013-03-07 23:00:00,37.8,15.0,29.97,NNE,19,4.0,5.0,39,0.00,,,0.00,weatherlink.com 1.10,2013-03-08 06:00:00,
2013-03-07 23:15:00,36.9,16.0,29.97,NNE,19,4.0,6.0,43,0.00,,,0.00,weatherlink.com 1.10,2013-03-08 06:15:00,
2013-03-07 23:30:00,36.8,16.0,29.97,NNE,19,0.0,5.0,43,0.00,,,0.00,weatherlink.com 1.10,2013-03-08 06:30:00,
2013-03-07 23:45:00,34.8,14.0,29.97,NNE,19,1.0,5.0,43,0.00,,,0.00,weatherlink.com 1.10,2013-03-08 06:45:00,